{"data":{"norad_id":68233,"intl_designator":"2026-054B","name":"STARLINK-37132","alt_names":[],"object_type":"PAYLOAD","status":"ACTIVE","operator":null,"country":"US","launch_date":"2026-03-17","launch_site_code":"AFETR","launch_vehicle":null,"mission":null,"orbit_class":"UNKNOWN","rcs_meters":null,"size_class":null,"mass_kg":null,"dimensions":null,"purposes":["comms"],"wikipedia_slug":null,"has_3d_model":false,"image_url":null,"decayed_at":null,"tle_current":{"epoch":"2026-09-19T21:43:03.340992Z","epoch_age_seconds":102540,"freshness":"FRESH","line1":"1 68233U 26054B   26262.90489978  .00013456  00000+0  40863-3 0  9993","line2":"2 68233  53.1587 104.3388 0000575  97.7364 262.3704 15.34403516 28874","mean_motion":15.34403516,"eccentricity":5.75e-5,"inclination_deg":53.1587,"raan_deg":104.3388,"arg_perigee_deg":97.7364,"mean_anomaly_deg":262.3704,"bstar":0.00040863,"rev_number":2887,"period_min":93.847543034436,"perigee_km":462.29944222118,"apogee_km":463.08613764702,"semimajor_km":6840.8297899341,"source":"CELESTRAK","updated_at":"2026-09-20T09:00:43.839136Z"}}}